Find Local Weather

World > North America > United States > Florida

Fort Pierce, Florida Regional Weather

Lat: 27.44N, Lon: 80.32W
Wx Zone: FLZ059
Warning FLW WEATHER ALERT - SHORTTERM FORECAST (More Info. Click Here) Warning
Feedback
Expires:201808142000;;061345
ASUS42 KTBW 141917
RWRFL 
FLORIDA REGIONAL WEATHER ROUNDUP
NATIONAL WEATHER SERVICE TAMPA BAY RUSKIN FL
300 PM EDT TUE AUG 14 2018

NOTE: "FAIR" INDICATES FEW OR NO CLOUDS BELOW 12,000 FEET WITH NO
SIGNIFICANT WEATHER AND/OR OBSTRUCTIONS TO VISIBILITY.


FLZ041-047-054-059-064-141-147-142000-
EAST CENTRAL FLORIDA
  
CITY           SKY/WX    TMP DP  RH WIND       PRES   REMARKS
ORMOND BEACH   MOSUNNY   90  72  55 S12       30.05S HX  96           
DAYTONA BEACH  PTSUNNY   88  74  63 S9        30.05S HX  96           
DELAND         FAIR      90  70  51 SW7       30.04F HX  95           
NEW SMYRNA BEA MOSUNNY   90  75  62 E17       30.06F HX 100           
JFK SPACE CTR  FAIR      91  75  60 S8          N/A  HX 101           
TITUSVILLE     PTSUNNY   91  73  55 S12       30.06F HX 100           
CAPE CANAVERAL FAIR      89  72  57 SE14      30.05F HX  96           
PATRICK AFB    FAIR      85  78  79 SE12      30.07F HX  97           
MELBOURNE      FAIR      89  74  60 SE16G24   30.06F HX  98           
VERO BEACH     FAIR      89  76  65 SE15      30.08F HX 100           
FT PIERCE      FAIR      86  77  74 SE8       30.08F HX  97           
STUART         MOSUNNY   79  72  78 CALM      30.11F                  

STATION/POSITION SKY/WX   TEMP    WIND        PRES    WAVE   SWELL
                          AIR SEA DIR/SP/G            HT/PER HT/PER
                          (F)     (DEG/KT/KT) (MB)    (FT/S) (FT/S)
28.5N   80.2W              84     160/ 10/ 12 1018.6F   1/ 7   2/ 7
28.9N   78.5W              83 85  160/  8/ 10 1019.6F   2/ 7   2/ 7
TRIDENT PIER                      120/  8/ 10 1019.7F
28.4N   80.5W                 78                N/A     1/ 7
27.5N   80.2W                 82                N/A     1

$$

SKY/WX - Weather  TMP - Temperature  DP - Dewpoint  RH - Relative Humidity
WIND - Wind Direction/Speed PRES - Barometric Pressure